Weather History for KIAG - October, 2011

Change the Weather History Date:

Tuesday, October 11, 2011

  Actual Average Record
Temperature  
Mean Temperature 62 °F -  
Max Temperature 75 °F 60 °F 77 °F (2003)
Min Temperature 50 °F 41 °F 28 °F (1993)
Degree Days  
Heating Degree Days 2    
Growing Degree Days 12 (Base 50)    
Moisture  
Dew Point 53 °F    
Average Humidity 88    
Maximum Humidity 100    
Minimum Humidity 44    
Precipitation  
Precipitation 0.00 in - - ()
Sea Level Pressure  
Sea Level Pressure 30.17 in    
Wind  
Wind Speed 1 mph (East)    
Max Wind Speed 9 mph    
Max Gust Speed -    
Visibility 4 miles    
Events Fog    
Averages and records for this station are not official NWS values.
T = Trace of Precipitation, MM = Missing Value Source: NWS Daily Summary

Daily Weather History Graph

Daily Weather History Graph

Search for Another Location

Airport or City:

Trip Planner

Search our weather history database for the weather conditions in past years. The results will help you decide how hot, cold, wet, or windy it might be!

Date:

Astronomy

Oct. 11, 2011 Rise Set
Actual Time 7:24 AM EDT 6:40 PM EDT
Civil Twilight 6:55 AM EDT 7:08 PM EDT
Nautical Twilight 6:22 AM EDT 7:41 PM EDT
Astronomical Twilight 5:49 AM EDT 8:14 PM EDT
Moon 6:09 PM EDT (10/11) 7:01 AM EDT (10/11)
Length of Visible Light 12h 12m
Length of Day
11h 15m
Full, 100% of the Moon is Illuminated
Oct 11
Full
Oct 11
Full
Oct 19
Last Quarter
Oct 26
New
Nov 2
First Quarter

Hourly Weather History & Observations

Time (EDT) Temp. Dew Point Humidity Pressure Visibility Wind Dir Wind Speed Gust Speed Precip Events Conditions
12:48 AM 57.2 °F 55.4 °F 94% 30.20 in 2.0 mi Calm Calm - N/A   Clear
12:53 AM 55.9 °F 55.0 °F 97% 30.20 in 2.0 mi Calm Calm - N/A   Clear
1:03 AM 55.4 °F 53.6 °F 94% 30.20 in 4.0 mi Calm Calm - N/A   Clear
1:14 AM 55.4 °F 53.6 °F 94% 30.20 in 1.8 mi Calm Calm - N/A   Clear
1:25 AM 55.4 °F 53.6 °F 94% 30.20 in 3.0 mi Calm Calm - N/A   Clear
1:45 AM 53.6 °F 53.6 °F 100% 30.20 in 2.5 mi Calm Calm - N/A   Partly Cloudy
1:53 AM 54.0 °F 53.1 °F 97% 30.20 in 2.0 mi NE 3.5 mph - N/A   Partly Cloudy
2:11 AM 55.4 °F 53.6 °F 94% 30.19 in 3.0 mi Calm Calm - N/A   Partly Cloudy
2:18 AM 53.6 °F 53.6 °F 100% 30.19 in 2.5 mi Calm Calm - N/A   Clear
2:32 AM 53.6 °F 53.6 °F 100% 30.19 in 4.0 mi Calm Calm - N/A   Clear
2:42 AM 53.6 °F 53.6 °F 100% 30.19 in 1.8 mi Calm Calm - N/A   Clear
2:53 AM 54.0 °F 53.1 °F 97% 30.19 in 1.8 mi Calm Calm - N/A   Clear
3:02 AM 53.6 °F 51.8 °F 94% 30.19 in 2.5 mi Calm Calm - N/A   Clear
3:10 AM 51.8 °F 51.8 °F 100% 30.18 in 4.0 mi Calm Calm - N/A   Clear
3:23 AM 51.8 °F 50.0 °F 94% 30.18 in 1.0 mi ENE 3.5 mph - N/A   Mist
3:25 AM 51.8 °F 50.0 °F 94% 30.18 in 0.5 mi ENE 3.5 mph - N/A Fog Fog
3:32 AM 51.8 °F 51.8 °F 100% 30.18 in 0.2 mi East 4.6 mph - N/A Fog Fog
3:36 AM 51.8 °F 51.8 °F 100% 30.18 in 0.8 mi East 3.5 mph - N/A   Mist
3:38 AM 51.8 °F 51.8 °F 100% 30.18 in 1.5 mi East 3.5 mph - N/A   Scattered Clouds
3:53 AM 52.0 °F 50.0 °F 93% 30.18 in 2.5 mi Calm Calm - N/A   Partly Cloudy
4:03 AM 51.8 °F 50.0 °F 94% 30.18 in 3.0 mi Calm Calm - N/A   Clear
4:07 AM 51.8 °F 50.0 °F 94% 30.18 in 1.2 mi Calm Calm - N/A   Clear
4:09 AM 51.8 °F 50.0 °F 94% 30.18 in 0.8 mi Calm Calm - N/A   Mist
4:13 AM 50.0 °F 50.0 °F 100% 30.18 in 0.2 mi Calm Calm - N/A Fog Fog
4:27 AM 51.8 °F 50.0 °F 94% 30.18 in 0.8 mi Calm Calm - N/A   Mist
4:29 AM 51.8 °F 50.0 °F 94% 30.18 in 1.2 mi Calm Calm - N/A   Partly Cloudy
4:31 AM 51.8 °F 50.0 °F 94% 30.18 in 3.0 mi Calm Calm - N/A   Partly Cloudy
4:53 AM 51.1 °F 48.9 °F 92% 30.18 in 5.0 mi Calm Calm - N/A   Clear
5:03 AM 51.8 °F 48.2 °F 88% 30.18 in 2.0 mi Calm Calm - N/A   Partly Cloudy
5:05 AM 51.8 °F 50.0 °F 94% 30.18 in 1.2 mi Calm Calm - N/A   Partly Cloudy
5:08 AM 51.8 °F 50.0 °F 94% 30.18 in 0.8 mi Calm Calm - N/A   Mist
5:16 AM 51.8 °F 50.0 °F 94% 30.18 in 1.2 mi Calm Calm - N/A   Partly Cloudy
5:19 AM 51.8 °F 50.0 °F 94% 30.18 in 2.0 mi East 3.5 mph - N/A   Partly Cloudy
5:43 AM 50.0 °F 48.2 °F 94% 30.18 in 1.8 mi Calm Calm - N/A   Scattered Clouds
5:45 AM 51.8 °F 48.2 °F 88% 30.18 in 1.0 mi Calm Calm - N/A   Mist
5:53 AM 50.0 °F 48.9 °F 96% 30.19 in 1.5 mi Calm Calm - N/A   Partly Cloudy
5:55 AM 50.0 °F 48.2 °F 94% 30.18 in 3.0 mi ENE 3.5 mph - N/A   Partly Cloudy
6:06 AM 51.8 °F 48.2 °F 88% 30.18 in 2.0 mi Calm Calm - N/A   Partly Cloudy
6:53 AM 50.0 °F 48.9 °F 96% 30.20 in 4.0 mi ENE 3.5 mph - N/A   Clear
7:00 AM 51.8 °F 48.2 °F 88% 30.19 in 6.0 mi Calm Calm - N/A   Scattered Clouds
7:53 AM 51.1 °F 50.0 °F 96% 30.21 in 6.0 mi Calm Calm - N/A Fog Mostly Cloudy
8:53 AM 57.2 °F 53.6 °F 88% 30.20 in 7.0 mi Calm Calm - N/A   Mostly Cloudy
9:53 AM 62.1 °F 57.0 °F 84% 30.19 in 7.0 mi East 3.5 mph - N/A   Mostly Cloudy
10:53 AM 69.1 °F 57.9 °F 68% 30.18 in 8.0 mi ESE 4.6 mph - N/A   Mostly Cloudy
11:53 AM 73.0 °F 57.9 °F 59% 30.17 in 10.0 mi ESE 4.6 mph - N/A   Mostly Cloudy
12:53 PM 75.0 °F 55.0 °F 50% 30.15 in 10.0 mi ESE 6.9 mph - N/A   Mostly Cloudy
1:53 PM 75.0 °F 52.0 °F 44% 30.13 in 10.0 mi East 4.6 mph - N/A   Mostly Cloudy
2:53 PM 75.9 °F 53.1 °F 45% 30.11 in 10.0 mi East 4.6 mph - N/A   Mostly Cloudy
3:53 PM 75.9 °F 54.0 °F 46% 30.10 in 10.0 mi ENE 6.9 mph - N/A   Overcast
4:53 PM 72.0 °F 61.0 °F 68% 30.10 in 10.0 mi NNE 9.2 mph - N/A   Overcast
5:53 PM 69.1 °F 60.1 °F 73% 30.09 in 10.0 mi ENE 5.8 mph - N/A   Overcast
6:53 PM 66.0 °F 59.0 °F 78% 30.09 in 10.0 mi ENE 5.8 mph - N/A   Mostly Cloudy
7:53 PM 64.0 °F 59.0 °F 84% 30.09 in 10.0 mi East 6.9 mph - N/A   Overcast
8:53 PM 64.0 °F 59.0 °F 84% 30.08 in 10.0 mi East 6.9 mph - N/A   Overcast
9:53 PM 63.0 °F 57.9 °F 84% 30.08 in 10.0 mi East 5.8 mph - N/A   Overcast
10:53 PM 63.0 °F 57.9 °F 84% 30.08 in 10.0 mi ESE 6.9 mph - N/A   Overcast
11:53 PM 61.0 °F 57.9 °F 90% 30.08 in 7.0 mi East 4.6 mph - N/A   Clear